• Em Portugal
  • Lista de países
  • Para 7 dias
  • Temperatura da água
  • Mapas de satélite
  • Mapa do tempo
  • Widgets de tempo
  • user-avatar
    Iniciar Sessão

    Previsão horária em Andora

    Hoje, 17 Dezembro, Domingo

    Tempo Temperatura Precipitação Vento Pressão Humidade
    00:00 -9°C° 0 mm 3 m/s 624 mmHg 77%
    01:00 -9°C° 0 mm 3 m/s 624 mmHg 76%
    02:00 -9°C° 0 mm 3 m/s 624 mmHg 76%
    03:00 -9°C° 0 mm 3 m/s 625 mmHg 76%
    04:00 -10°C° 0 mm 3 m/s 625 mmHg 75%
    05:00 -10°C° 0 mm 3 m/s 625 mmHg 74%
    06:00 -10°C° 0 mm 3 m/s 625 mmHg 73%
    07:00 -9°C° 0 mm 3 m/s 626 mmHg 70%
    08:00 -8°C° 0 mm 3 m/s 626 mmHg 67%
    09:00 -7°C° 0 mm 3 m/s 627 mmHg 64%
    10:00 -6°C° 0 mm 3 m/s 628 mmHg 61%
    11:00 -4°C° 0 mm 3 m/s 628 mmHg 57%
    12:00 -2°C° 0 mm 3 m/s 629 mmHg 54%
    13:00 -2°C° 0 mm 3 m/s 629 mmHg 57%
    14:00 -2°C° 0 mm 3 m/s 628 mmHg 60%
    15:00 -2°C° 0 mm 3 m/s 628 mmHg 64%
    16:00 -4°C° 0 mm 3 m/s 628 mmHg 68%
    17:00 -5°C° 0 mm 3 m/s 628 mmHg 73%
    18:00 -6°C° 0 mm 3 m/s 628 mmHg 78%
    19:00 -5°C° 0 mm 3 m/s 629 mmHg 79%
    20:00 -5°C° 0 mm 3 m/s 629 mmHg 80%
    21:00 -5°C° 0 mm 3 m/s 629 mmHg 81%
    22:00 -5°C° 0 mm 3 m/s 629 mmHg 81%
    23:00 -5°C° 0 mm 3 m/s 630 mmHg 81%

    Amanhã, 18 Dezembro, Segunda-feira

    Tempo Temperatura Precipitação Vento Pressão Humidade
    00:00 -5°C° 0 mm 3 m/s 630 mmHg 81%
    01:00 -5°C° 0 mm 3 m/s 630 mmHg 82%
    02:00 -5°C° 0 mm 2 m/s 629 mmHg 83%
    03:00 -5°C° 0 mm 2 m/s 629 mmHg 84%
    04:00 -5°C° 0 mm 2 m/s 629 mmHg 83%
    05:00 -5°C° 0 mm 2 m/s 629 mmHg 83%
    06:00 -6°C° 0 mm 2 m/s 629 mmHg 83%
    07:00 -5°C° 0 mm 2 m/s 630 mmHg 80%
    08:00 -4°C° 0 mm 2 m/s 630 mmHg 77%
    09:00 -4°C° 0 mm 3 m/s 631 mmHg 74%
    10:00 -1°C° 0 mm 3 m/s 631 mmHg 71%
    11:00 0°C° 0 mm 3 m/s 631 mmHg 69%
    12:00 +1°C° 0 mm 3 m/s 631 mmHg 67%
    13:00 +1°C° 0 mm 3 m/s 631 mmHg 68%
    14:00 +1°C° 0 mm 3 m/s 630 mmHg 70%
    15:00 +1°C° 0 mm 3 m/s 630 mmHg 72%
    16:00 0°C° 0,2 mm 3 m/s 629 mmHg 76%
    17:00 0°C° 0,2 mm 3 m/s 629 mmHg 80%
    18:00 -1°C° 0,2 mm 3 m/s 628 mmHg 84%
    19:00 -1°C° 0,2 mm 3 m/s 628 mmHg 84%
    20:00 -2°C° 0,2 mm 4 m/s 628 mmHg 85%
    21:00 -1°C° 0,2 mm 4 m/s 628 mmHg 86%
    22:00 -2°C° 0,1 mm 4 m/s 628 mmHg 86%
    23:00 -2°C° 0,1 mm 4 m/s 628 mmHg 87%

    Depois de amanhã, 19 Dezembro, Terça-feira

    Tempo Temperatura Precipitação Vento Pressão Humidade
    00:00 -2°C° 0,1 mm 4 m/s 628 mmHg 87%
    01:00 -2°C° 0,1 mm 4 m/s 628 mmHg 87%
    02:00 -3°C° 0,1 mm 4 m/s 628 mmHg 87%
    03:00 -3°C° 0,1 mm 4 m/s 628 mmHg 88%
    04:00 -4°C° 0 mm 4 m/s 628 mmHg 88%
    05:00 -4°C° 0 mm 3 m/s 628 mmHg 88%
    06:00 -5°C° 0 mm 3 m/s 628 mmHg 88%
    07:00 -5°C° 0 mm 3 m/s 629 mmHg 85%
    08:00 -4°C° 0 mm 3 m/s 629 mmHg 81%
    09:00 -4°C° 0 mm 3 m/s 630 mmHg 78%
    10:00 -2°C° 0 mm 2 m/s 630 mmHg 72%
    11:00 -1°C° 0 mm 2 m/s 631 mmHg 65%
    12:00 +2°C° 0 mm 2 m/s 632 mmHg 59%
    13:00 +1°C° 0 mm 2 m/s 631 mmHg 61%
    14:00 +1°C° 0 mm 2 m/s 631 mmHg 63%
    15:00 -1°C° 0 mm 2 m/s 631 mmHg 65%
    16:00 -2°C° 0 mm 2 m/s 631 mmHg 70%
    17:00 -4°C° 0 mm 2 m/s 630 mmHg 76%
    18:00 -6°C° 0 mm 2 m/s 630 mmHg 81%
    19:00 -6°C° 0 mm 2 m/s 630 mmHg 79%
    20:00 -6°C° 0 mm 2 m/s 631 mmHg 77%
    21:00 -6°C° 0 mm 2 m/s 631 mmHg 75%
    22:00 -6°C° 0 mm 2 m/s 631 mmHg 73%
    23:00 -6°C° 0 mm 2 m/s 631 mmHg 72%

    20 Dezembro, Quarta-feira

    Tempo Temperatura Precipitação Vento Pressão Humidade
    00:00 -6°C° 0 mm 2 m/s 631 mmHg 70%
    01:00 -6°C° 0 mm 2 m/s 631 mmHg 69%
    02:00 -6°C° 0 mm 2 m/s 631 mmHg 67%
    03:00 -6°C° 0 mm 2 m/s 631 mmHg 65%
    04:00 -6°C° 0 mm 2 m/s 631 mmHg 65%
    05:00 -6°C° 0 mm 2 m/s 631 mmHg 66%
    06:00 -6°C° 0 mm 2 m/s 631 mmHg 66%
    07:00 -4°C° 0 mm 2 m/s 632 mmHg 64%
    08:00 -3°C° 0 mm 2 m/s 632 mmHg 62%
    09:00 -2°C° 0 mm 2 m/s 633 mmHg 60%
    10:00 +1°C° 0 mm 2 m/s 633 mmHg 60%
    11:00 +2°C° 0 mm 2 m/s 634 mmHg 59%
    12:00 +3°C° 0 mm 3 m/s 634 mmHg 58%
    13:00 +3°C° 0 mm 3 m/s 633 mmHg 61%
    14:00 +2°C° 0 mm 3 m/s 633 mmHg 64%
    15:00 +2°C° 0 mm 3 m/s 633 mmHg 67%
    16:00 0°C° 0 mm 3 m/s 632 mmHg 70%
    17:00 -1°C° 0 mm 3 m/s 632 mmHg 73%
    18:00 -4°C° 0 mm 3 m/s 632 mmHg 75%
    19:00 -4°C° 0 mm 3 m/s 632 mmHg 75%
    20:00 -4°C° 0 mm 3 m/s 632 mmHg 74%
    21:00 -4°C° 0 mm 3 m/s 633 mmHg 73%
    22:00 -4°C° 0 mm 3 m/s 633 mmHg 73%
    23:00 -3°C° 0 mm 2 m/s 633 mmHg 73%

    21 Dezembro, Quinta-feira

    Tempo Temperatura Precipitação Vento Pressão Humidade
    00:00 -3°C° 0 mm 2 m/s 633 mmHg 73%
    01:00 -3°C° 0 mm 2 m/s 633 mmHg 73%
    02:00 -3°C° 0 mm 2 m/s 633 mmHg 72%
    03:00 -3°C° 0 mm 2 m/s 633 mmHg 72%
    04:00 -3°C° 0 mm 2 m/s 633 mmHg 71%
    05:00 -3°C° 0 mm 2 m/s 633 mmHg 71%
    06:00 -3°C° 0 mm 2 m/s 633 mmHg 70%
    07:00 -2°C° 0 mm 2 m/s 634 mmHg 68%
    08:00 -1°C° 0 mm 2 m/s 635 mmHg 65%
    09:00 +2°C° 0 mm 1 m/s 635 mmHg 63%
    10:00 +3°C° 0 mm 1 m/s 636 mmHg 61%
    11:00 +5°C° 0 mm 1 m/s 636 mmHg 59%
    12:00 +6°C° 0 mm 1 m/s 637 mmHg 57%
    13:00 +6°C° 0 mm 1 m/s 636 mmHg 60%
    14:00 +6°C° 0 mm 1 m/s 636 mmHg 62%
    15:00 +5°C° 0 mm 1 m/s 635 mmHg 65%
    16:00 +4°C° 0 mm 1 m/s 635 mmHg 68%
    17:00 +2°C° 0 mm 1 m/s 635 mmHg 70%
    18:00 -2°C° 0 mm 2 m/s 634 mmHg 73%
    19:00 -2°C° 0 mm 2 m/s 634 mmHg 70%
    20:00 -2°C° 0 mm 2 m/s 634 mmHg 68%
    21:00 -2°C° 0 mm 2 m/s 635 mmHg 65%
    22:00 -2°C° 0 mm 2 m/s 634 mmHg 65%
    23:00 -2°C° 0 mm 2 m/s 634 mmHg 64%

    22 Dezembro, Sexta-feira

    Tempo Temperatura Precipitação Vento Pressão Humidade
    00:00 -2°C° 0 mm 2 m/s 634 mmHg 64%
    01:00 -2°C° 0 mm 2 m/s 634 mmHg 65%
    02:00 -2°C° 0 mm 2 m/s 634 mmHg 66%
    03:00 -2°C° 0 mm 2 m/s 634 mmHg 67%
    04:00 -3°C° 0 mm 2 m/s 634 mmHg 69%
    05:00 -3°C° 0 mm 2 m/s 634 mmHg 71%
    06:00 -4°C° 0 mm 3 m/s 634 mmHg 72%
    07:00 -2°C° 0 mm 3 m/s 635 mmHg 72%
    08:00 -1°C° 0 mm 3 m/s 635 mmHg 71%
    09:00 0°C° 0 mm 3 m/s 636 mmHg 70%
    10:00 +1°C° 0 mm 3 m/s 636 mmHg 68%
    11:00 +2°C° 0 mm 3 m/s 636 mmHg 65%
    12:00 +4°C° 0 mm 3 m/s 637 mmHg 63%
    13:00 +3°C° 0 mm 3 m/s 636 mmHg 66%
    14:00 +3°C° 0 mm 3 m/s 636 mmHg 68%
    15:00 +2°C° 0 mm 3 m/s 636 mmHg 71%
    16:00 +1°C° 0 mm 3 m/s 635 mmHg 75%
    17:00 0°C° 0 mm 3 m/s 635 mmHg 79%
    18:00 -2°C° 0 mm 3 m/s 634 mmHg 82%
    19:00 -2°C° 0 mm 3 m/s 634 mmHg 82%
    20:00 -2°C° 0 mm 3 m/s 635 mmHg 81%
    21:00 -2°C° 0 mm 3 m/s 635 mmHg 81%
    22:00 -2°C° 0 mm 3 m/s 634 mmHg 80%
    23:00 -2°C° 0 mm 3 m/s 634 mmHg 80%
    Mostrar mais

    XHprof extension not loaded